RH
74 77 73 72 80 87 95 92 94 97 96 99 96 97 95 86 88 92 91 91 93 87 83 85 76 70 70 72 73 74 74 70 74 78 83 89 80 83 92 87 84 81 78 81 88 93 90 88 88 88 87 86 85 83 84 83 85 84 83 80 77 74 72 74 75 73 72 72 72 75 78 77 78 79 79 80 81 81 82 83 83 84 86 88 86 87 86 85 84 86 86 75 68 69 67 70 81
72 74 77 81 87 94 100 95 95 98 97 98 94 97 97 89 89 91 92 91 94 87 82 83 75 68 64 62 67 71 77 73 73 80 85 90 86 91 94 84 81 76 74 81 87 93 91 87 87 89 88 86 85 83 84 85 88 87 86 86 83 81 79 77 76 74 75 76 77 77 76 77 79 82 82 82 83 84 83 84 87 88 87 88 91 90 87 87 86 86 86 81 74 72 70 66 75
68 69 84 96 96 96 99 98 98 99 99 98 97 96 96 96 92 91 93 91 92 87 83 82 75 67 64 66 69 76 81 74 76 85 88 89 90 96 92 82 80 72 74 83 88 91 90 88 87 87 87 86 86 85 84 86 89 87 86 87 86 87 85 82 80 78 79 82 83 82 82 83 84 85 86 86 87 87 87 87 90 90 90 90 92 92 90 89 88 89 87 85 83 80 78 70 71
69 70 85 94 97 98 99 100 99 99 100 96 95 96 94 96 92 92 93 92 93 89 85 81 75 63 64 74 70 75 79 73 77 82 87 87 89 94 90 87 85 78 81 87 88 89 88 87 86 86 87 86 87 87 85 86 87 85 85 85 86 87 86 86 85 84 84 84 84 85 86 87 87 86 88 89 88 89 89 89 91 92 92 91 92 93 93 92 91 94 90 87 89 90 88 80 75
74 79 87 89 95 98 98 99 98 99 99 96 96 96 94 93 93 93 93 92 92 91 88 79 73 61 62 67 63 76 79 72 74 75 84 86 87 93 91 90 89 88 91 91 88 86 86 85 84 85 86 85 84 85 83 83 84 84 84 85 87 87 86 87 87 87 86 85 86 86 86 88 89 90 91 91 91 92 92 90 91 92 92 91 92 93 94 94 93 92 91 90 90 92 93 87 84
84 90 91 88 94 95 98 97 97 99 96 96 97 96 93 93 93 93 93 89 87 90 85 74 67 62 66 64 58 69 69 68 72 73 81 84 88 92 91 88 89 94 95 93 87 82 83 83 83 82 82 83 83 85 83 82 82 83 84 85 87 88 89 88 88 88 86 85 86 86 87 90 91 93 93 91 92 93 92 90 91 92 94 93 93 93 91 90 88 89 88 90 90 89 90 88 90
84 92 95 93 96 94 99 98 97 101 94 93 96 96 94 94 93 94 95 85 84 86 80 75 68 69 77 69 62 58 57 65 68 72 78 82 88 90 87 85 89 95 94 91 84 80 80 81 84 81 78 82 83 87 86 83 83 83 84 84 86 87 89 87 87 88 86 86 86 88 91 93 92 93 92 90 91 91 92 90 89 92 92 91 93 92 89 85 82 85 88 91 93 87 88 89 89
76 88 97 95 98 96 98 99 98 99 92 90 93 94 92 92 93 94 95 86 87 86 82 82 69 74 79 70 71 60 55 64 66 72 77 81 86 85 82 83 91 95 91 87 81 78 78 78 85 83 79 81 82 87 88 85 84 85 85 85 87 87 89 88 88 88 86 86 85 88 92 93 93 92 91 91 91 91 93 91 89 93 89 86 91 92 88 88 83 82 86 89 92 87 87 90 88
76 84 94 93 98 98 96 98 97 96 92 92 94 94 91 91 92 93 94 89 90 89 87 83 70 76 74 68 73 62 60 65 66 72 75 77 76 77 81 84 90 90 88 84 80 82 80 78 82 82 80 82 81 83 86 86 85 86 86 85 87 88 88 88 87 86 84 85 83 87 93 94 92 92 92 91 92 92 93 92 90 92 86 81 87 89 86 86 85 82 83 87 89 89 89 90 90
80 82 90 95 97 97 97 98 96 95 92 92 96 95 93 92 91 93 95 92 91 88 82 75 71 76 73 74 75 65 65 65 66 70 70 71 69 75 81 81 78 79 84 82 84 87 82 79 81 80 80 83 82 81 83 84 86 88 90 88 90 90 86 85 85 83 83 84 83 86 90 93 94 93 93 90 89 87 90 91 88 87 81 77 79 81 80 78 79 79 83 86 89 91 90 89 90
87 84 86 96 94 92 95 98 97 97 91 89 94 94 94 93 91 92 93 93 92 87 82 78 74 74 74 79 75 63 63 64 65 65 67 70 72 76 79 78 69 68 77 83 89 87 80 78 80 80 81 83 82 82 82 82 85 89 93 91 92 90 84 83 83 82 83 83 83 84 84 87 89 85 85 82 78 82 88 86 81 79 76 75 76 75 74 73 75 79 82 85 86 88 90 90 90
85 90 89 94 92 88 91 97 97 97 93 91 96 95 94 92 90 92 91 92 92 87 85 86 79 73 74 75 73 64 60 64 62 62 67 70 73 75 80 79 67 65 75 83 88 84 81 81 80 82 82 83 82 82 82 82 84 86 91 91 92 89 84 82 80 81 85 85 83 82 78 78 79 76 78 76 75 82 88 82 74 73 74 75 77 77 76 76 79 80 80 82 84 85 88 90 90
79 91 89 89 90 87 89 95 93 93 96 95 96 95 94 94 92 92 92 91 92 88 84 87 84 78 80 77 75 69 60 57 57 62 67 70 75 76 81 78 66 69 77 81 84 84 84 82 83 83 82 83 82 82 85 87 87 86 89 91 92 89 84 81 77 78 84 88 83 75 70 68 68 70 74 74 71 74 77 74 71 75 80 77 76 81 83 83 83 81 82 82 81 82 85 89 90
72 83 80 83 85 81 86 94 92 94 99 93 93 93 92 94 95 94 93 93 93 89 84 83 80 78 81 78 74 69 57 51 54 61 65 70 75 75 79 77 70 71 76 79 83 86 84 83 84 84 83 84 84 86 89 89 89 90 89 90 92 89 86 83 81 80 81 83 75 66 62 60 60 64 68 70 69 71 75 76 79 84 85 77 77 85 85 84 83 82 84 83 82 80 84 89 87
67 76 75 77 77 78 84 89 91 96 98 91 90 91 90 92 95 94 89 92 90 85 83 78 72 74 77 73 72 66 52 48 54 60 64 70 73 75 79 79 76 73 76 79 81 86 85 85 85 85 88 86 86 89 91 89 88 90 89 89 89 88 88 87 89 87 81 76 72 67 66 68 69 67 68 68 66 71 76 78 84 86 81 74 77 84 83 82 80 81 83 84 85 83 84 88 84
63 69 74 70 70 81 84 86 91 95 95 88 88 90 90 88 88 91 86 89 89 82 84 84 76 75 76 70 65 56 45 47 54 60 66 71 74 78 81 82 81 78 81 80 80 87 88 87 86 89 90 86 84 83 86 88 87 85 83 85 85 86 89 89 88 85 80 77 77 75 75 80 80 76 75 70 65 68 69 69 72 73 73 74 76 79 81 82 81 80 82 82 83 84 86 87 86
54 57 70 69 67 79 78 83 88 88 91 88 90 91 88 85 80 83 84 85 89 84 85 88 81 75 75 66 55 49 44 47 52 60 67 70 73 78 83 85 85 89 89 82 81 87 90 89 87 89 87 82 79 75 79 83 84 83 81 82 83 87 88 88 86 84 84 81 81 81 78 77 73 72 75 71 66 68 68 66 66 66 70 74 75 77 79 82 81 81 82 83 84 85 87 88 88
54 56 64 64 66 72 69 74 78 80 88 89 92 87 83 87 82 81 83 83 86 88 87 87 83 75 67 57 52 51 47 47 51 57 63 65 70 76 82 85 88 94 91 83 83 86 89 89 84 84 81 77 75 75 77 78 84 85 80 82 84 87 87 87 88 88 86 78 77 78 71 66 62 62 66 67 67 68 67 67 68 69 71 72 74 79 83 86 85 85 85 86 88 89 89 88 88
58 72 69 60 63 66 62 67 72 75 85 88 88 82 81 85 82 81 84 83 85 91 92 87 83 75 65 58 58 55 49 49 50 54 58 60 66 71 78 82 86 91 88 85 86 82 82 83 78 75 73 73 73 76 77 76 86 85 77 79 82 84 86 87 85 84 81 71 69 68 63 63 66 65 66 70 72 73 69 68 72 75 78 78 79 83 87 89 90 91 91 90 90 92 90 85 87
51 73 72 59 59 63 61 63 68 69 78 85 81 79 83 81 80 82 82 83 87 94 94 88 82 75 69 68 66 58 53 51 50 52 55 58 63 68 73 77 80 85 86 88 90 83 77 75 73 69 67 72 73 75 77 78 85 83 75 77 78 78 81 81 75 73 71 65 64 64 65 70 73 72 73 76 80 81 75 75 81 83 82 82 83 83 82 83 86 90 92 93 91 90 89 83 85
41 57 65 56 55 63 62 59 63 66 73 79 77 79 82 78 79 82 79 79 85 89 90 87 80 73 70 75 73 63 58 55 53 53 55 59 62 65 69 71 74 77 80 85 90 87 79 71 68 68 68 73 74 73 75 77 81 80 76 74 74 73 72 70 67 65 64 64 66 69 72 75 75 74 74 77 84 86 81 80 84 83 79 79 79 76 76 80 84 88 88 91 91 90 90 86 85
40 44 49 49 52 61 59 55 60 66 71 74 77 79 76 76 80 80 75 72 74 75 79 81 75 71 70 75 75 68 65 62 59 56 56 60 61 63 65 66 69 71 75 80 85 85 79 69 67 72 77 79 80 76 72 73 75 74 73 71 70 67 63 61 61 62 64 67 71 73 76 76 74 73 74 76 81 84 82 80 81 81 78 74 72 69 72 77 81 86 86 85 88 90 91 89 88
40 40 40 44 50 55 54 55 59 64 69 70 74 74 73 80 82 79 75 74 71 64 69 74 70 69 70 72 72 71 71 67 64 60 57 60 60 60 62 64 66 67 70 74 77 80 77 72 72 77 82 83 84 82 76 73 72 69 68 67 63 59 57 57 58 59 62 68 71 73 74 74 72 70 73 74 75 80 78 77 79 78 73 68 67 67 69 71 73 79 81 80 84 88 90 92 90
35 39 40 44 46 49 53 55 59 65 66 65 67 69 75 82 81 78 79 79 71 60 64 68 66 70 71 70 72 72 73 68 62 57 54 56 58 57 59 62 63 63 66 68 71 75 75 74 76 78 82 82 83 85 82 77 73 67 64 60 55 55 58 59 60 61 61 64 68 71 72 71 69 66 69 72 73 75 74 75 76 71 68 68 68 69 70 70 71 74 76 78 81 86 88 92 92
34 37 37 43 45 46 52 56 61 65 64 65 68 71 74 77 79 80 82 78 66 59 65 66 66 74 73 70 73 72 73 70 61 55 52 53 54 54 58 61 62 62 62 64 65 68 71 72 75 77 79 79 79 85 85 80 75 66 60 55 54 60 63 61 62 65 62 61 66 70 72 71 69 65 65 70 72 71 72 73 71 68 70 74 73 73 74 73 73 75 76 79 83 86 86 89 93
29 30 33 41 44 45 51 56 59 61 65 68 70 72 72 72 75 78 79 73 62 59 65 66 67 73 71 70 74 73 74 73 66 59 52 52 53 53 56 58 61 61 57 60 61 63 68 69 72 74 75 76 78 83 84 80 75 67 62 60 63 66 66 64 65 67 66 63 63 66 72 72 65 60 59 65 70 68 70 71 68 70 74 77 79 78 79 78 78 78 79 82 86 88 87 88 92
24 27 31 38 44 46 50 53 55 60 66 67 66 73 73 67 69 73 73 66 61 64 67 66 68 72 68 69 74 73 72 70 65 60 54 55 56 53 52 51 57 60 55 57 58 59 64 66 68 69 71 74 76 79 78 76 74 69 65 64 67 68 67 67 65 66 67 65 62 62 70 69 58 55 57 60 66 67 70 73 73 75 77 79 82 81 82 83 84 84 84 87 88 91 90 88 90
20 26 30 38 44 46 48 50 55 61 66 66 65 71 72 67 67 69 66 61 63 67 69 67 68 72 68 68 73 72 71 65 59 61 59 57 54 53 54 47 50 57 55 56 55 56 60 62 64 66 67 72 74 74 72 72 72 69 67 66 66 66 66 65 64 64 64 64 62 60 64 61 53 58 63 63 67 72 76 79 80 82 83 83 82 83 87 88 88 92 93 92 91 92 93 91 92
18 26 34 40 42 47 49 48 56 59 63 68 66 70 74 73 70 63 58 60 65 68 68 68 67 69 67 68 72 71 69 64 63 66 58 52 50 52 56 50 47 50 51 53 52 53 57 58 62 63 63 68 70 69 67 68 68 67 68 67 66 65 66 64 63 62 58 57 58 58 57 53 50 57 69 74 76 82 85 85 86 87 86 84 81 82 87 90 90 94 97 96 93 92 94 96 94
18 26 34 39 39 48 45 45 59 57 61 67 62 71 77 73 66 56 55 60 65 69 70 67 66 66 66 68 71 70 69 67 70 66 53 49 49 50 55 53 49 48 47 50 51 52 55 55 59 59 59 64 65 65 66 65 64 65 67 66 65 63 60 59 57 54 48 46 50 55 55 51 51 57 70 78 77 79 85 86 87 86 85 83 83 82 86 90 90 92 95 95 94 91 91 94 95
21 23 32 40 41 49 41 44 60 54 60 65 58 70 71 63 61 54 56 57 60 69 69 66 66 66 66 68 70 70 70 68 67 62 52 49 48 51 56 53 51 50 47 48 49 51 54 55 56 56 57 60 62 64 65 62 60 62 65 63 60 57 54 52 49 44 43 43 48 54 53 52 55 60 67 73 71 70 73 76 79 80 81 83 83 83 86 89 89 91 91 92 94 91 91 93 93
35 24 32 40 36 44 40 42 54 49 56 60 57 70 64 55 58 54 54 54 57 67 67 66 66 65 67 70 69 70 71 67 65 61 55 51 50 53 57 54 52 52 48 48 47 47 51 54 54 53 54 55 59 63 61 58 57 58 61 59 56 54 50 46 41 39 42 46 50 53 53 56 58 59 62 66 67 64 64 69 74 77 80 83 82 83 88 89 88 89 91 94 95 93 95 96 94
55 30 31 34 28 40 43 42 47 45 54 59 60 70 64 54 55 53 53 53 58 66 67 68 67 64 67 70 68 68 73 72 70 67 60 55 53 54 57 55 55 54 50 48 48 46 48 52 53 52 53 52 55 61 57 54 55 54 57 58 56 54 47 43 40 39 41 45 52 55 57 59 58 60 64 65 64 62 65 69 74 78 80 82 81 82 87 88 86 87 89 94 94 93 95 96 98
55 33 29 29 27 39 46 46 45 43 55 63 61 63 59 54 54 55 54 52 58 64 65 68 68 65 66 69 68 67 73 75 74 72 65 59 55 54 57 56 56 57 53 51 52 49 46 49 52 52 51 48 51 58 53 51 54 52 53 55 53 51 49 47 43 41 43 48 55 59 61 61 60 65 68 65 63 65 69 71 75 78 79 82 81 81 86 86 86 86 86 89 91 90 89 92 97
36 28 27 25 27 36 41 44 45 45 54 61 64 62 57 55 53 54 53 50 57 62 62 66 67 67 68 70 70 68 73 74 72 71 67 62 58 56 57 57 57 58 57 57 56 51 45 46 52 53 51 48 52 54 49 51 54 52 54 54 49 49 52 50 45 47 53 56 59 61 62 64 67 71 70 64 63 69 74 74 76 78 80 84 84 82 85 86 85 85 87 89 88 86 85 89 94
23 21 23 22 23 30 32 34 39 43 50 58 64 63 56 54 50 51 52 49 55 59 60 65 69 72 72 71 71 70 72 71 67 68 70 69 64 59 58 59 59 59 61 61 61 55 46 47 53 53 49 49 52 52 51 55 56 55 56 54 49 50 54 54 52 58 63 65 64 63 65 70 73 73 69 64 64 70 75 76 77 79 81 84 83 80 82 83 82 84 88 86 83 82 81 84 91
17 17 19 18 17 22 23 29 37 38 44 51 56 57 54 52 48 47 49 51 56 60 63 68 73 76 73 70 70 69 70 73 75 79 80 75 69 65 62 62 61 60 62 63 65 60 50 48 50 48 48 49 51 52 55 58 56 56 56 53 51 53 57 59 62 65 68 70 69 69 72 72 70 70 66 66 68 71 75 78 78 80 83 83 80 80 81 80 78 81 84 80 77 78 78 81 91
16 16 17 15 15 16 14 25 36 33 38 48 50 54 53 49 47 46 50 54 55 59 64 67 71 74 72 70 68 68 75 85 90 91 86 76 70 69 66 64 63 61 61 62 66 66 57 51 50 47 46 49 52 53 53 56 56 55 55 53 52 54 57 61 64 67 71 73 74 77 76 69 64 63 63 70 75 75 78 80 78 79 83 83 79 80 81 77 75 79 82 79 78 78 77 80 87
15 15 15 15 16 16 14 25 36 31 34 46 50 54 55 51 48 47 51 55 55 58 62 63 67 72 73 70 66 70 84 92 93 94 91 82 74 71 70 67 64 62 62 63 68 73 66 59 59 58 56 59 65 64 58 57 56 55 56 55 54 55 56 59 62 66 71 74 76 78 73 67 63 60 65 76 81 82 84 83 80 79 81 81 81 81 79 74 73 76 78 79 80 78 75 75 79
15 14 14 16 15 15 13 19 30 28 29 41 49 54 56 53 50 50 50 52 55 58 61 63 66 68 68 66 65 74 87 91 92 95 94 88 81 77 75 72 67 66 68 68 73 81 81 73 69 69 75 79 77 74 68 62 60 60 60 59 59 60 60 62 64 68 69 69 74 75 69 67 65 66 76 84 85 87 86 86 85 83 82 80 80 81 79 77 76 76 75 75 77 74 69 69 74
16 14 13 15 14 13 11 11 20 29 31 36 47 55 58 57 55 53 50 51 53 58 64 66 67 66 65 68 73 77 82 86 91 95 93 92 88 82 78 77 75 73 72 71 75 84 89 87 81 81 92 94 85 79 76 73 72 72 72 69 67 70 71 71 72 74 71 70 75 75 72 73 73 77 86 88 87 87 85 85 84 82 82 79 78 79 79 79 78 77 74 73 73 69 64 67 70
16 14 13 14 12 11 11 10 16 34 41 35 40 51 55 58 59 54 51 52 53 58 65 66 69 70 68 76 83 80 79 84 89 91 91 89 87 85 83 82 81 78 76 75 77 81 86 92 95 96 98 93 83 80 83 86 86 88 89 85 80 81 82 81 81 80 79 79 79 75 76 81 83 86 90 89 87 85 83 82 80 79 79 77 75 76 75 77 76 74 73 71 69 65 65 67 63
14 13 12 12 11 10 12 11 14 30 39 32 32 42 48 50 53 53 51 53 56 60 62 63 70 72 72 82 86 80 81 87 90 91 89 86 85 87 88 87 85 81 80 79 80 82 86 93 98 99 98 92 83 83 90 94 95 97 98 94 89 86 88 91 88 82 82 81 78 77 80 84 85 88 91 89 86 83 79 78 78 77 75 75 74 73 72 73 70 67 67 67 64 63 66 64 55
14 13 11 11 12 11 11 10 11 16 22 25 27 36 47 46 47 51 53 54 56 60 62 65 72 74 76 82 82 80 82 85 89 91 90 88 87 87 87 87 85 81 79 80 83 85 87 92 94 93 94 93 89 88 90 94 97 98 98 97 94 89 91 95 91 84 84 82 79 80 84 84 86 90 89 85 83 81 79 77 75 72 72 73 71 69 66 63 60 58 60 62 60 61 60 56 50
14 11 10 11 10 11 12 11 13 13 14 25 32 36 43 42 46 52 52 52 56 60 64 66 71 76 79 81 80 79 80 82 85 87 90 91 88 88 85 81 77 75 77 78 81 84 84 85 86 87 89 90 91 92 92 94 97 97 99 101 97 94 95 94 91 87 84 86 87 85 85 86 86 86 85 84 85 84 79 75 71 69 71 68 64 63 58 54 56 57 57 58 59 59 53 50 49
12 10 11 12 10 13 13 9 13 14 14 23 27 32 40 40 47 53 48 51 56 57 61 65 69 76 81 82 80 77 78 81 84 85 89 92 90 87 85 82 78 77 79 78 77 80 81 80 82 88 94 97 97 98 98 98 98 99 100 100 98 98 97 94 91 87 88 92 94 90 88 86 84 83 85 89 92 84 74 70 68 69 69 63 61 61 55 51 54 55 54 53 54 55 50 49 50
9 11 13 11 13 18 21 23 19 14 23 30 21 22 34 40 50 58 54 55 56 54 59 67 72 78 83 82 79 77 78 82 86 88 91 93 91 87 87 89 86 83 84 82 80 82 82 83 88 93 98 100 100 100 100 99 99 100 100 99 98 95 93 92 86 86 93 96 93 92 90 84 82 85 89 92 89 76 68 69 69 68 67 66 64 60 53 51 52 52 51 51 51 51 49 49 49
9 14 16 14 22 29 36 45 32 18 30 36 23 19 31 41 47 48 47 50 52 50 57 69 74 79 83 81 80 80 81 84 89 95 96 96 94 90 89 91 88 84 83 83 83 85 86 88 93 96 98 99 100 100 100 100 100 100 100 100 97 93 93 94 89 90 95 92 89 90 86 80 80 83 87 88 79 67 68 71 68 65 66 65 61 55 54 55 53 52 53 54 54 53 53 51 50
10 18 22 22 30 32 37 46 32 23 30 26 21 25 33 42 41 35 38 44 46 46 54 65 71 76 80 80 81 81 81 84 91 97 98 95 95 91 86 86 86 83 83 87 89 90 91 92 93 94 96 98 100 100 100 100 99 99 100 99 96 96 96 92 91 93 91 87 87 85 81 79 79 81 84 81 73 68 71 69 63 61 59 55 55 55 57 58 54 53 55 55 55 55 55 54 52
9 16 22 25 29 25 31 40 30 25 29 21 22 32 38 42 38 33 38 42 43 44 53 62 66 73 78 77 79 81 81 85 91 95 95 92 93 89 81 81 85 86 88 92 92 92 92 93 93 94 97 99 99 100 100 100 98 97 98 98 96 96 94 88 88 91 87 85 84 80 79 78 76 78 78 73 72 72 71 66 60 58 54 51 54 54 56 59 55 54 55 54 55 57 58 57 55
9 14 15 19 26 21 22 30 24 20 26 24 25 35 43 44 38 35 39 45 49 52 56 62 67 72 76 76 79 83 85 87 89 91 91 90 89 85 79 80 85 88 89 89 88 90 91 92 93 93 97 100 99 99 100 99 97 95 95 95 93 92 90 85 85 88 84 80 76 71 71 71 68 69 68 67 71 71 66 62 59 58 55 53 56 55 56 58 56 55 55 55 58 61 60 58 56
9 10 11 12 19 19 19 26 23 17 26 31 30 35 39 39 38 39 46 53 57 60 62 66 71 73 75 78 82 83 84 86 87 88 89 88 85 82 79 81 87 89 86 85 87 88 90 91 92 92 95 97 97 98 99 98 97 95 93 90 88 87 84 81 81 79 73 69 67 64 64 67 67 65 63 64 71 72 66 62 62 63 61 59 59 58 57 56 56 57 58 58 60 61 60 58 55
10 7 10 12 11 12 15 24 25 22 31 32 32 39 40 39 42 40 46 58 61 64 68 70 74 77 78 82 83 82 83 85 87 87 87 86 83 80 78 80 86 87 84 84 86 87 89 90 90 93 96 96 97 97 96 95 93 90 88 85 84 84 82 80 73 66 65 66 66 65 65 64 63 66 65 61 64 69 67 64 65 65 63 61 59 57 58 58 59 60 61 62 61 61 64 62 58
9 7 10 9 9 12 16 20 21 26 34 31 33 42 43 46 48 39 42 59 64 65 70 75 81 82 82 84 83 81 82 83 84 84 84 83 80 77 76 78 82 83 82 83 85 86 88 90 92 94 95 96 97 95 92 89 86 85 84 82 82 82 79 74 68 66 70 67 59 57 57 54 53 59 61 56 56 60 61 61 62 61 59 58 58 59 61 62 61 61 62 64 63 63 66 64 60
7 7 8 7 8 14 17 17 17 22 28 31 35 39 38 42 45 38 42 57 63 65 71 77 81 82 83 84 83 82 82 82 82 83 83 81 77 74 72 76 81 82 81 83 85 85 88 91 93 93 94 95 93 91 90 87 84 83 82 80 78 76 72 68 68 71 66 54 47 48 50 49 48 51 52 52 54 55 56 57 58 58 56 56 59 61 63 62 61 61 64 66 65 63 63 60 57
7 5 6 9 9 11 14 15 18 24 29 33 34 32 34 40 39 37 41 50 57 63 69 73 74 77 82 82 82 83 82 82 82 81 81 79 74 69 68 73 80 82 83 85 84 84 88 92 92 91 92 93 90 88 89 87 84 81 77 74 73 72 70 67 64 63 55 48 48 49 48 47 46 47 47 49 52 54 56 58 59 59 58 59 61 62 63 62 62 63 64 63 60 60 62 58 55
7 8 7 7 8 10 11 12 18 25 30 38 40 35 37 39 34 33 37 43 52 59 62 65 68 72 77 79 81 82 81 81 79 78 77 75 70 66 66 71 77 79 82 85 82 81 84 88 91 90 87 87 87 87 88 86 82 78 72 70 70 68 66 60 55 54 51 50 51 50 51 51 49 48 47 48 53 56 58 60 60 61 61 62 64 64 65 64 63 62 59 54 46 45 56 62 58
7 8 9 7 8 11 11 13 19 20 22 32 39 36 34 32 28 29 32 37 45 52 56 60 64 69 74 77 80 81 80 78 76 74 71 70 67 65 68 73 76 78 81 83 81 80 82 86 89 88 85 85 87 86 86 85 81 75 71 68 65 61 57 53 51 51 50 51 53 53 54 55 55 55 54 55 58 60 61 62 62 62 63 63 64 64 65 63 59 54 49 47 39 34 44 57 60
Wind_Speed
11 9 7 4 3 1 3 1 1 1 0 0 2 1 0 1 2 2 1 1 0 2 3 3 4 3 6 6 11 7 6 2 4 5 3 5 25 33 21 22 30 28 27 25 22 21 21 21 20 20 20 21 21 20 21 19 19 18 17 17 16 16 15 15 14 14 14 13 13 12 12 11 10 9 9 9 8 8 7 7 6 6 6 5 5 5 5 5 5 5 5 4 5 5 6 7 6
13 10 5 2 3 2 1 0 2 1 0 1 2 1 2 1 1 2 1 1 2 4 5 4 4 2 8 8 6 5 8 6 3 5 3 20 32 24 21 28 31 29 29 26 23 22 21 22 21 20 20 20 21 20 21 19 19 18 17 17 16 16 15 15 14 14 13 12 12 11 10 10 9 8 8 8 7 7 7 7 6 5 4 4 4 4 4 4 4 4 4 4 4 5 6 7 6
15 11 7 6 3 1 1 0 1 1 1 2 2 1 2 2 3 2 2 2 3 5 5 4 3 2 5 8 5 4 4 5 9 8 9 25 24 18 28 31 30 30 29 27 24 23 23 22 21 21 20 20 20 20 20 20 19 18 17 16 16 16 15 15 14 13 13 12 11 10 10 9 8 8 8 7 7 7 7 6 6 5 4 4 4 3 3 4 4 4 4 4 3 4 5 7 6
13 9 7 7 1 0 1 1 1 1 0 1 2 2 2 2 2 1 3 3 4 5 4 2 2 2 6 12 6 6 6 5 8 7 9 18 20 26 33 30 30 29 28 27 26 25 24 23 22 21 21 20 19 19 19 19 19 18 18 17 16 15 15 14 14 13 12 12 11 11 10 9 8 8 8 8 7 7 7 6 6 5 5 4 4 3 3 4 4 5 5 4 4 4 5 6 7
12 8 5 3 1 0 1 1 1 0 1 1 2 3 2 2 3 2 3 2 4 4 4 1 3 1 5 8 4 4 7 8 8 8 11 18 27 32 32 31 30 28 28 27 27 27 25 24 23 22 21 20 19 18 19 19 19 19 18 17 16 15 15 14 13 13 13 12 11 11 10 9 9 8 8 8 8 7 7 7 6 5 5 4 4 4 4 4 5 6 5 5 5 5 5 5 6
13 11 4 2 0 2 1 1 2 1 1 1 3 2 1 2 3 3 4 1 3 5 3 2 4 4 4 3 3 5 8 10 11 11 17 24 30 31 31 32 29 27 28 27 28 27 26 24 24 23 21 20 18 18 18 18 18 18 17 16 16 15 14 13 13 12 12 12 11 11 10 10 9 8 8 8 8 7 7 7 6 5 4 4 4 4 5 6 6 5 5 5 6 7 6 6 7
15 9 1 1 1 1 2 2 2 2 1 2 3 2 1 1 1 2 4 1 3 6 4 3 3 5 3 1 4 9 14 14 13 17 23 30 30 31 33 31 28 27 27 28 29 28 26 24 23 23 22 20 18 17 17 18 18 17 17 16 15 14 14 13 13 12 12 12 12 11 10 10 9 9 8 8 8 7 7 6 6 5 4 4 4 4 4 4 4 5 5 5 5 6 6 7 8
14 5 1 1 1 0 2 1 1 2 1 3 2 3 2 2 1 1 4 1 1 4 4 3 3 5 3 2 4 10 19 19 20 26 29 32 32 32 31 29 27 27 28 29 28 27 25 23 22 22 21 20 18 17 17 17 17 16 16 16 15 14 14 13 13 12 12 11 11 11 10 9 9 9 8 8 8 8 7 5 5 4 4 3 4 4 3 3 3 4 5 5 5 5 5 6 7
10 3 1 1 1 1 1 1 1 2 2 3 2 3 2 2 2 0 4 2 2 1 4 3 2 5 5 6 6 7 18 25 28 31 32 34 33 30 28 27 28 28 29 29 28 26 23 22 21 21 21 20 19 18 17 17 16 16 16 15 15 14 14 13 12 12 12 11 10 10 10 9 9 9 8 8 8 8 7 5 5 4 4 3 4 4 4 4 4 4 4 5 5 5 5 6 7
4 2 1 1 1 2 1 1 1 2 3 3 2 1 1 1 3 1 2 3 1 2 4 5 6 7 8 7 5 5 18 29 30 30 31 33 31 29 28 28 28 29 29 28 27 25 24 22 21 22 21 19 19 18 18 17 16 15 15 15 14 14 14 13 13 12 11 11 10 10 9 10 10 9 9 9 8 7 7 6 5 5 4 4 4 4 4 4 4 4 5 5 5 5 6 6 7
1 1 1 1 1 1 1 0 1 2 2 2 2 1 1 2 3 1 3 2 4 2 4 5 6 7 8 6 3 9 25 32 28 29 30 31 31 32 30 28 28 29 30 28 27 25 24 22 21 21 20 20 19 18 18 17 16 15 14 14 14 13 14 13 13 12 12 11 10 10 10 10 10 10 9 8 7 7 7 6 5 5 5 5 5 4 3 3 2 2 3 4 5 5 6 6 7
1 0 2 0 2 1 1 1 1 1 1 1 2 1 0 1 4 3 5 3 3 4 5 3 3 3 7 7 2 10 25 29 27 30 31 31 32 32 29 28 29 29 29 28 26 25 24 22 21 20 20 19 18 18 17 17 16 15 15 14 14 13 13 13 13 13 13 12 11 11 11 11 10 10 9 8 7 7 7 6 6 6 5 5 4 4 3 2 2 2 3 3 4 5 6 6 7
2 3 3 1 2 2 2 2 1 1 2 3 3 1 1 2 2 2 4 4 2 4 4 3 1 2 6 5 1 5 15 24 29 31 31 31 30 29 28 29 30 29 28 27 25 24 23 22 21 20 20 19 18 18 17 17 16 16 16 15 14 14 13 13 13 13 13 12 12 11 11 10 10 9 8 7 7 7 7 7 6 6 5 4 3 3 2 2 2 2 2 3 4 5 6 6 7
4 3 4 1 1 3 2 1 1 2 2 3 3 2 1 2 1 1 1 5 3 2 1 3 2 4 5 4 3 3 10 25 32 32 31 30 29 28 26 28 29 29 27 26 25 24 23 22 21 21 20 19 19 17 17 17 16 16 16 15 15 14 14 13 13 13 12 12 11 10 10 9 9 8 8 7 7 7 6 6 6 5 5 3 2 2 1 2 2 2 2 2 3 4 5 5 6
6 1 4 1 3 1 1 1 1 2 1 1 1 1 2 1 4 2 1 4 2 1 1 2 2 2 5 7 6 5 14 28 33 32 32 30 29 26 25 26 27 27 26 25 25 24 23 22 22 21 21 20 19 18 17 17 16 16 16 15 15 14 14 14 13 12 11 11 10 9 8 8 8 7 8 7 7 7 6 6 6 5 4 3 2 2 2 2 2 2 2 2 3 3 4 5 6
4 1 3 1 2 0 0 2 2 3 1 1 2 3 3 2 4 1 1 1 1 1 1 1 2 1 4 5 8 13 22 30 32 33 31 29 28 26 25 25 25 25 24 24 24 24 24 24 23 22 21 21 20 19 18 17 16 16 16 15 15 15 14 13 12 12 11 10 9 9 9 9 8 8 8 7 7 7 6 5 5 5 4 3 3 3 3 2 3 3 3 3 3 3 4 4 4
1 1 2 1 1 2 3 4 3 3 3 4 6 6 4 1 1 1 1 2 3 2 2 1 2 1 3 5 12 18 25 31 34 33 30 28 26 25 24 24 24 22 22 24 24 24 24 24 24 23 22 21 20 19 19 18 16 15 15 15 14 14 13 13 12 12 11 11 11 10 10 10 10 10 9 9 8 7 6 5 5 4 4 4 3 4 4 4 3 3 4 4 4 4 4 4 4
2 2 1 1 1 2 3 5 5 5 5 6 7 6 5 4 2 2 0 5 4 3 3 2 2 2 2 9 14 15 24 31 31 31 28 25 23 21 22 23 24 22 23 24 24 24 24 24 24 23 22 21 20 20 19 18 17 16 16 15 14 14 13 13 12 12 12 12 12 11 11 11 11 11 11 10 9 8 7 6 5 4 4 4 4 5 5 5 5 5 5 5 5 4 4 5 5
3 2 2 1 3 2 1 6 7 5 6 7 6 6 5 5 5 3 2 2 1 3 3 2 3 3 3 8 9 9 21 26 26 28 26 23 22 21 21 22 23 23 24 25 24 24 24 24 23 22 21 21 20 20 20 19 18 17 16 16 15 14 13 13 13 13 12 12 12 12 12 11 11 11 11 10 9 8 7 7 6 5 6 6 6 7 7 7 7 7 6 6 6 5 5 6 6
3 3 3 2 3 3 3 8 8 5 8 9 7 6 5 5 5 2 5 4 1 3 3 3 6 8 7 7 5 8 17 21 24 27 24 23 23 23 23 22 23 23 25 26 26 24 23 23 22 21 20 20 20 19 19 19 19 17 17 16 15 15 14 14 14 13 13 13 13 13 12 11 11 11 11 10 9 8 7 8 7 7 7 8 8 8 9 8 8 8 8 8 8 7 6 6 6
2 3 2 4 6 5 5 9 8 7 8 9 8 6 6 6 3 3 7 6 1 4 6 6 10 12 11 7 5 8 14 16 21 24 22 21 22 23 24 25 25 26 26 26 26 25 23 22 22 21 20 20 19 19 19 19 18 18 17 16 16 15 15 15 14 14 14 14 13 12 11 11 11 10 10 10 10 10 8 9 9 8 9 9 9 9 9 9 9 9 9 9 9 8 7 6 6
3 2 5 7 7 6 8 9 9 9 8 7 8 6 6 4 3 5 8 6 4 5 6 7 9 12 10 7 6 7 10 12 15 21 21 21 22 22 23 24 25 26 26 26 26 26 24 23 23 21 20 20 19 19 18 18 18 18 18 17 17 16 16 15 15 15 14 13 13 12 11 11 11 11 11 10 10 10 10 10 10 10 10 9 9 9 8 9 10 10 10 10 10 10 9 7 6
3 1 5 8 7 8 10 10 11 10 8 9 8 6 6 5 3 6 7 5 4 5 7 7 8 10 8 6 6 7 8 9 12 18 21 23 24 23 24 25 25 26 26 27 27 26 25 24 23 21 21 21 19 19 18 18 18 17 17 16 17 17 17 16 16 15 14 13 13 12 12 11 11 11 12 11 11 11 11 11 10 11 11 9 8 8 9 9 9 10 10 9 9 10 10 9 8
5 3 7 9 8 11 11 11 11 10 10 10 7 6 7 8 5 5 7 7 4 7 8 8 9 8 7 6 6 6 7 8 11 17 20 22 27 28 29 28 27 27 27 26 26 27 27 25 23 22 23 22 21 20 18 18 18 17 17 17 17 17 16 16 15 15 14 14 13 13 12 11 11 11 12 12 12 13 12 12 11 11 9 8 7 8 9 9 9 10 10 9 8 9 10 10 10
5 5 9 9 7 10 11 11 11 10 9 7 7 8 10 10 6 7 9 7 5 9 8 9 10 8 7 7 7 6 6 7 11 14 14 17 25 29 28 28 28 27 27 27 27 28 28 27 25 24 24 23 22 22 20 18 18 18 18 17 18 17 17 17 15 15 14 13 13 13 12 11 11 12 13 13 14 14 14 14 11 9 8 7 7 7 8 9 10 10 9 8 7 8 8 9 10
5 7 9 10 9 10 10 11 12 10 6 6 9 9 9 9 6 6 9 7 9 10 10 10 10 9 8 8 7 7 7 7 9 11 12 13 18 23 21 23 27 28 29 29 28 29 29 28 27 25 24 23 23 23 21 19 19 19 19 18 17 17 17 16 15 15 14 13 13 13 13 12 10 11 12 14 14 14 14 13 10 7 6 6 6 7 7 9 9 8 7 7 7 8 9 8 10
7 9 9 11 11 10 11 12 11 8 6 8 12 9 7 7 4 4 7 8 11 11 11 11 11 10 9 9 7 7 7 8 10 10 12 11 12 17 16 17 24 27 29 29 29 29 30 30 28 25 24 24 24 23 21 20 21 20 19 17 16 16 16 15 14 15 15 15 14 13 14 12 8 8 9 11 12 12 12 10 7 5 4 5 7 8 7 8 8 8 7 7 8 8 9 8 9
6 10 6 9 12 9 10 11 10 7 5 9 10 5 3 4 4 5 8 11 13 13 12 12 12 9 8 9 7 6 7 11 13 10 12 11 9 11 11 15 22 24 26 29 31 29 29 31 29 27 25 25 25 23 21 21 22 20 19 18 16 16 15 15 16 15 16 16 15 13 14 12 8 8 9 10 11 11 9 7 6 4 4 5 7 8 7 8 8 8 8 8 9 9 9 8 8
2 8 7 8 9 7 10 10 10 7 5 9 7 3 1 5 7 6 10 12 12 13 12 12 12 9 8 9 7 6 7 11 12 11 15 15 12 9 8 13 17 21 26 28 30 29 30 31 30 28 26 25 26 24 22 21 22 21 20 19 17 17 16 16 17 16 15 15 15 15 14 13 9 7 9 10 9 9 8 6 5 4 4 6 7 7 7 7 7 7 8 9 8 8 8 7 7
2 3 6 7 5 5 10 9 10 8 6 10 7 2 4 9 10 7 10 12 13 12 11 11 10 8 8 8 7 7 8 10 10 13 18 17 15 12 7 9 9 16 23 23 26 28 31 33 31 28 26 26 26 25 23 21 21 21 20 20 18 18 16 15 16 14 12 10 13 18 17 14 11 8 8 7 7 7 7 6 5 5 6 7 6 7 7 7 7 7 7 8 7 6 5 6 7
2 2 3 4 3 5 10 10 11 7 4 10 7 1 6 9 9 10 11 13 14 12 11 11 10 9 8 8 8 7 8 10 12 15 18 17 17 14 9 8 6 9 12 15 26 28 28 33 33 30 28 28 27 26 24 21 20 21 20 20 19 17 16 15 14 13 11 9 14 20 18 15 13 10 8 7 6 5 5 5 6 7 8 7 6 7 8 8 8 7 7 7 6 6 4 5 7
0 2 2 1 3 4 7 10 13 9 4 7 5 1 5 7 8 11 12 12 13 12 11 11 10 10 9 8 8 7 7 10 14 16 17 17 18 16 10 9 8 8 6 10 22 24 26 33 33 32 31 30 30 28 26 22 21 21 20 20 18 16 16 15 13 13 12 11 18 21 18 16 13 10 8 8 7 6 6 6 7 8 8 7 6 5 6 7 7 6 6 6 6 6 5 6 7
3 2 2 3 3 3 3 7 10 9 5 5 5 2 3 5 6 10 11 12 12 11 10 10 11 10 9 8 8 7 6 8 11 15 19 19 19 18 13 11 10 10 8 10 13 16 28 35 33 34 33 31 31 30 27 25 24 23 21 21 19 17 17 15 13 14 13 12 20 22 18 16 11 9 8 7 7 6 6 6 7 7 7 6 5 4 4 5 6 7 6 5 7 8 7 7 7
4 1 3 3 4 4 3 4 7 7 7 8 7 4 4 5 6 10 10 11 11 10 10 10 10 9 8 8 8 8 7 7 8 12 18 19 20 20 17 15 14 11 10 10 8 10 24 34 35 35 33 31 32 30 29 28 26 24 21 21 21 19 18 18 15 14 13 14 20 20 16 13 10 8 7 5 5 6 5 5 6 6 5 5 4 3 3 4 5 6 5 5 7 8 8 8 7
4 3 3 2 3 5 5 5 8 11 9 9 9 6 6 5 5 9 10 10 11 10 10 9 9 9 8 8 8 8 7 7 8 12 18 20 21 21 21 20 18 14 9 8 7 7 17 29 33 34 32 31 30 30 29 27 25 24 22 21 21 20 19 19 15 13 14 15 17 16 13 11 9 7 5 4 5 6 5 5 5 5 4 3 3 4 3 3 3 4 4 5 6 6 6 6 5
8 7 3 3 2 5 8 5 10 15 8 7 10 7 5 6 7 9 10 10 10 9 8 7 7 7 7 7 7 7 8 8 8 11 12 13 18 22 24 22 20 16 10 8 8 10 16 24 30 31 29 28 28 27 27 26 24 23 22 21 20 20 19 17 14 13 14 14 14 13 11 9 7 6 4 4 5 5 5 4 4 4 3 2 3 4 4 3 3 3 4 4 4 4 4 4 4
12 8 3 5 2 4 9 6 10 14 7 5 9 6 5 9 9 8 10 9 8 8 7 7 6 6 7 8 8 7 7 4 8 9 6 7 17 23 24 22 20 18 15 12 10 12 16 21 27 29 25 24 25 26 25 26 26 23 22 20 20 21 19 16 14 13 12 11 11 10 9 7 6 5 5 5 4 4 4 4 4 3 2 2 3 4 3 3 3 4 4 3 3 3 4 4 4
11 5 4 6 4 3 5 7 13 13 7 4 6 6 7 10 9 7 8 9 9 9 9 8 7 7 6 7 8 6 5 8 13 11 12 19 25 26 24 22 22 22 20 18 14 14 17 19 23 26 23 21 21 21 22 25 26 25 23 20 20 21 19 17 15 13 12 10 9 9 7 7 7 7 7 5 4 3 3 3 3 2 2 3 3 3 3 2 3 3 3 4 3 3 4 4 4
5 1 4 5 4 4 5 6 15 12 5 4 8 8 7 7 7 6 8 9 9 8 10 10 9 8 6 7 6 7 8 7 8 11 16 24 28 24 22 22 24 24 23 22 17 15 17 18 19 20 20 17 15 17 20 22 23 23 21 19 19 20 19 17 15 13 11 10 9 9 8 9 9 8 8 5 3 2 3 4 3 2 3 3 2 2 2 2 2 3 3 4 5 4 4 4 5
2 2 1 4 4 2 4 4 11 8 3 6 8 4 2 2 3 4 5 5 4 6 7 6 8 9 8 6 6 9 10 8 8 9 12 19 23 20 20 24 26 24 23 22 19 16 16 17 18 17 16 15 15 18 21 23 22 21 19 18 17 18 19 18 15 13 12 11 11 9 9 9 9 9 8 5 3 4 4 5 4 4 4 3 2 2 2 3 4 4 5 5 6 7 6 5 5
4 3 2 5 5 2 0 3 6 2 3 5 8 5 4 3 3 6 5 2 2 5 4 3 5 6 5 6 7 9 10 10 10 10 11 13 15 19 22 24 24 24 24 23 19 16 14 14 17 16 12 13 17 21 22 22 20 18 16 16 17 16 17 17 16 14 13 13 12 10 8 7 7 8 7 5 5 5 5 5 5 4 4 2 2 2 2 4 5 6 7 7 8 7 7 7 7
4 4 4 6 4 1 2 3 7 5 3 2 6 4 4 4 5 7 4 2 4 4 5 6 6 4 5 8 7 8 8 8 10 11 11 10 12 16 18 18 20 22 22 20 18 17 15 14 14 10 8 12 20 24 23 19 16 13 11 13 17 18 18 18 17 16 14 13 11 10 8 6 6 7 6 6 6 7 6 5 5 4 3 2 2 1 3 5 7 8 8 9 8 7 8 9 8
2 4 3 2 2 4 5 4 5 4 3 6 6 5 1 3 5 7 3 4 6 4 5 6 5 5 6 7 7 7 8 8 8 9 9 8 10 12 11 13 16 18 18 17 16 17 16 14 10 7 7 15 23 25 22 17 15 12 11 13 17 19 18 15 14 15 14 12 11 11 10 8 8 8 7 7 7 6 5 4 3 2 2 2 1 3 5 7 7 7 8 8 7 6 7 7 5
2 7 3 4 4 5 5 5 2 3 1 3 5 5 3 2 4 5 5 5 5 4 5 4 3 5 7 8 8 8 10 10 8 8 7 6 9 10 9 9 11 13 15 15 15 16 15 13 8 8 13 18 19 20 18 16 17 16 16 17 18 18 15 12 13 15 14 12 12 12 11 10 9 9 8 7 7 6 4 3 3 3 3 1 2 4 6 7 3 5 6 6 6 4 4 3 4
5 7 3 2 2 3 4 5 4 1 4 4 4 4 5 2 5 1 5 4 5 5 7 5 4 6 8 8 8 8 9 10 9 9 7 6 8 9 9 8 10 10 11 12 12 12 12 11 8 8 12 13 12 12 12 12 14 17 18 16 17 17 13 13 14 13 12 13 13 14 12 10 9 8 7 7 6 5 4 2 4 4 3 3 3 4 6 5 2 7 4 4 6 3 3 3 3
5 2 2 3 2 3 5 3 4 3 4 5 6 3 5 2 5 1 4 2 5 6 6 5 5 6 7 7 8 8 7 7 7 7 6 6 8 9 8 8 9 9 8 8 8 8 7 8 6 6 7 6 5 6 7 7 9 15 18 16 18 18 15 15 15 13 14 14 14 13 11 9 7 7 6 6 6 4 3 4 5 5 3 3 2 3 5 6 4 4 2 1 2 1 2 3 3
3 3 4 5 5 5 4 1 1 4 2 7 4 5 6 1 5 3 3 4 5 6 3 3 5 5 6 6 6 7 6 6 5 5 5 6 7 7 6 7 8 8 8 7 6 6 5 5 5 5 5 4 4 3 5 7 9 13 17 18 20 20 18 18 16 15 15 15 14 12 9 7 6 6 6 5 5 4 6 7 6 4 2 1 1 1 5 7 7 7 6 5 5 3 4 4 4
2 3 4 3 4 5 5 5 4 3 3 5 3 9 8 3 3 5 6 6 5 8 7 7 8 6 6 6 5 5 5 5 5 5 5 6 6 6 6 7 7 7 6 6 6 6 5 5 4 4 4 3 2 1 3 6 7 9 14 17 18 18 17 16 15 15 16 14 13 10 8 7 6 7 7 6 6 7 8 8 6 3 1 1 1 3 6 6 6 7 6 5 5 4 4 5 6
4 4 5 4 3 4 3 4 2 2 4 3 6 10 6 0 3 6 7 6 5 6 8 10 10 8 7 6 5 4 4 4 5 5 5 5 5 6 7 8 7 7 6 7 8 8 8 6 5 4 4 4 4 3 4 5 4 6 11 13 13 13 13 13 14 14 13 11 10 9 8 8 7 9 10 8 9 9 8 7 6 4 2 3 4 4 4 4 4 4 4 4 3 4 4 5 6
2 2 3 3 1 2 2 3 2 1 2 0 4 8 4 2 3 5 6 5 4 5 8 11 11 10 9 7 6 4 3 3 4 4 4 4 5 7 9 9 8 9 9 10 9 9 9 8 5 4 5 6 6 6 6 6 6 7 10 11 12 13 13 13 12 11 9 8 8 7 7 6 6 9 10 8 8 8 7 8 7 5 5 6 5 3 2 2 1 2 3 3 4 4 3 5 7
2 4 5 3 3 3 2 3 1 2 1 1 3 4 3 3 2 3 3 1 3 7 8 8 8 8 7 6 5 5 4 3 3 4 4 4 6 8 9 10 12 14 13 10 9 9 8 7 5 5 7 7 7 7 8 8 9 9 10 10 11 12 11 11 10 8 7 7 6 6 6 6 6 8 8 7 8 7 7 9 8 7 5 5 4 3 2 2 1 3 4 4 4 4 4 6 9
3 3 5 0 3 4 2 3 4 2 1 3 3 2 2 3 1 3 3 4 5 8 9 9 8 7 7 6 5 5 4 4 4 4 4 4 6 8 9 11 15 17 14 11 9 8 7 6 5 6 7 8 8 8 9 10 10 11 11 11 11 10 9 9 8 7 7 7 7 6 6 5 4 6 7 6 7 8 8 9 9 7 5 2 4 4 3 1 1 2 3 4 5 5 7 8 9
2 2 2 5 5 6 2 3 1 4 5 2 1 3 0 1 3 4 3 4 6 8 9 8 8 8 7 6 5 5 5 5 4 4 4 4 6 7 9 13 17 17 14 11 9 8 7 7 7 8 8 8 8 9 9 10 11 11 10 10 10 10 9 9 9 9 8 5 5 5 4 5 6 7 6 6 8 8 9 10 10 7 5 5 6 5 4 3 2 3 5 6 7 6 6 7 9
3 0 4 4 1 3 3 1 3 5 5 1 2 6 5 2 1 2 2 3 5 7 8 8 7 7 7 6 5 6 5 5 4 4 4 5 6 7 9 13 16 16 13 11 10 8 8 8 8 8 8 8 8 8 8 9 9 10 10 10 9 9 9 9 9 7 3 0 2 5 5 6 9 10 8 9 10 10 10 11 11 9 8 8 7 6 5 4 3 4 6 6 7 7 5 7 9
5 3 3 1 2 1 1 1 0 2 4 2 2 3 3 3 4 6 7 7 8 8 8 9 9 7 7 6 6 6 6 5 5 4 4 4 7 10 11 13 15 14 13 11 10 8 9 9 7 7 7 6 6 7 7 7 8 9 10 10 10 10 9 7 6 3 3 6 12 16 16 15 17 17 16 16 16 15 14 13 12 10 8 7 6 6 4 3 3 4 6 7 7 8 7 8 10
3 3 3 1 3 3 1 1 3 3 4 3 2 1 1 4 6 9 11 10 11 11 9 9 10 9 8 7 7 7 6 6 5 6 5 5 9 12 13 15 16 16 15 13 11 9 9 9 7 5 5 5 6 6 6 6 7 8 10 10 10 8 6 5 3 3 8 17 20 20 20 20 19 18 16 15 13 13 12 11 9 8 7 7 5 5 4 3 3 4 7 9 9 8 8 9 11
2 1 3 2 2 1 1 1 1 4 4 4 3 1 5 6 5 10 13 11 12 13 11 9 9 10 8 8 8 7 7 7 6 6 6 6 10 13 15 17 18 17 16 13 11 9 8 8 6 5 5 6 6 6 6 6 7 9 10 9 7 6 5 4 2 5 14 21 19 18 19 17 17 15 13 12 11 10 10 9 9 9 8 7 5 5 4 4 5 6 8 10 11 9 8 8 9
6 4 4 4 3 1 2 3 3 2 3 4 5 3 6 5 5 10 10 10 11 12 12 10 9 11 10 9 9 7 7 7 6 6 5 6 10 14 16 18 18 17 17 15 13 10 8 8 8 6 7 8 7 6 7 7 8 10 9 7 6 5 3 2 4 11 18 20 18 18 18 16 15 14 11 10 9 9 9 9 9 9 8 6 5 5 4 5 6 7 8 10 11 10 9 8 8
Wind_Direction
210 195 198 215 235 55 52 38 83 15 81 240 254 194 264 106 155 202 190 198 211 243 245 259 267 192 152 145 142 116 44 144 179 149 201 154 151 155 155 163 161 156 156 154 155 154 155 156 156 157 158 157 156 155 154 154 155 156 156 157 159 159 160 158 157 156 157 157 156 155 155 157 155 155 154 150 149 149 148 153 155 151 156 157 155 153 150 157 162 168 181 176 164 160 155 145 134
198 186 177 152 193 169 67 201 96 84 196 271 250 171 196 202 182 198 197 211 212 253 287 296 317 66 120 123 134 91 37 7 100 116 98 133 143 150 158 164 161 157 155 153 154 153 155 156 156 157 158 158 157 156 155 154 155 157 157 158 159 159 161 162 162 162 162 161 160 160 160 159 157 157 158 158 160 161 162 166 166 162 168 164 163 165 164 173 179 188 195 192 178 165 164 161 154
192 181 157 127 138 184 113 129 97 104 141 266 275 270 202 191 182 177 249 243 252 270 297 299 333 8 94 83 50 66 68 30 92 99 113 136 141 154 162 161 160 157 153 152 153 153 154 154 155 156 157 158 157 157 156 155 157 158 158 158 159 160 162 162 163 164 163 162 161 161 162 161 161 164 165 166 168 168 171 177 172 171 181 179 177 178 189 201 201 216 224 215 208 194 181 175 173
184 186 169 146 121 3 73 43 75 105 218 264 272 266 201 168 178 183 274 278 294 303 310 298 43 335 76 89 86 79 102 91 95 100 126 148 150 154 158 158 158 155 152 153 153 153 152 152 153 154 156 156 157 158 158 157 158 158 158 158 160 162 163 163 164 164 164 165 164 164 165 165 170 175 172 171 171 170 176 183 180 182 190 186 185 187 199 210 208 220 232 228 226 220 214 198 184
171 170 159 136 355 25 20 17 74 77 262 253 238 252 177 163 187 214 275 290 297 310 307 278 86 54 78 94 122 92 115 118 109 106 121 146 149 151 155 157 156 153 154 155 155 154 152 153 153 154 155 156 158 159 159 159 159 158 158 159 159 161 163 164 166 166 168 169 169 168 169 169 173 174 170 168 167 171 179 184 184 185 189 186 186 193 195 203 210 213 214 217 219 218 225 220 200
153 148 137 68 33 187 22 18 356 305 230 224 240 281 131 175 171 200 256 283 309 309 320 22 89 94 75 46 66 117 140 125 123 124 128 142 146 151 156 156 153 153 157 157 158 156 154 156 156 156 156 156 158 159 160 159 159 158 157 158 158 160 161 162 164 165 168 171 172 171 172 174 172 168 166 167 167 175 182 181 180 182 187 183 186 202 203 205 207 200 202 208 216 219 217 217 213
154 141 119 59 118 195 78 54 329 295 221 240 259 12 100 259 97 230 268 138 344 325 349 23 89 90 74 31 82 123 131 121 128 134 137 143 146 152 156 153 151 155 159 160 159 157 157 159 158 157 156 156 157 159 161 160 158 157 156 156 156 157 157 158 158 159 163 167 171 173 175 174 170 168 167 168 170 176 183 180 177 182 188 182 187 207 211 210 206 193 205 214 221 229 218 212 214
169 147 336 127 6 339 94 73 298 261 283 289 296 56 151 235 93 283 293 115 52 318 342 2 87 83 60 50 81 116 120 122 129 134 140 145 149 152 153 152 152 157 161 162 159 156 158 160 158 157 156 156 157 159 161 160 158 157 156 155 154 155 154 154 154 156 159 164 171 173 172 170 168 169 169 169 175 177 180 183 179 184 189 183 187 202 208 209 213 205 210 215 223 231 221 216 217
176 182 319 86 341 5 82 33 287 250 302 324 9 70 161 197 111 16 320 32 116 328 341 347 50 89 92 77 81 102 115 126 132 135 143 147 149 148 151 155 156 159 161 162 158 156 160 161 160 158 158 158 158 158 159 159 157 157 156 155 155 155 155 155 156 158 161 165 172 172 169 170 168 169 173 175 180 179 180 184 181 184 181 171 177 192 206 211 220 222 219 215 222 228 222 218 221
178 213 205 84 345 354 1 353 287 268 311 332 47 83 302 100 117 93 357 356 42 67 34 44 58 95 108 89 83 108 127 133 135 137 144 146 146 150 155 159 161 161 161 161 159 159 162 163 162 160 160 159 159 158 159 159 159 158 157 157 157 158 159 159 160 162 163 167 171 170 167 169 170 174 177 180 182 177 178 180 175 176 173 166 172 185 197 209 218 221 221 219 223 226 225 221 222
169 282 147 86 304 313 282 266 277 270 284 302 85 176 258 109 137 120 90 5 314 72 54 42 72 94 97 89 78 124 135 138 140 141 145 145 148 154 155 159 164 164 162 161 161 161 162 164 163 161 160 160 160 160 161 161 161 160 159 160 161 162 162 162 164 163 165 168 170 168 165 167 171 174 173 176 176 171 173 172 167 167 174 175 177 185 191 196 198 211 220 223 227 229 228 226 225
205 217 119 318 255 207 205 166 273 270 273 336 61 143 248 128 148 143 117 113 301 69 49 13 100 103 96 106 104 130 139 145 146 143 144 145 147 152 153 157 164 166 164 163 162 160 162 165 163 163 162 161 161 162 162 162 162 162 163 164 164 166 165 166 167 166 168 169 170 168 166 167 170 173 173 174 174 175 177 176 173 172 174 175 184 192 188 181 185 213 225 226 228 231 231 229 229
211 180 120 287 235 139 152 149 314 343 10 5 32 81 331 311 128 131 125 117 306 74 51 343 74 93 107 122 120 136 149 150 145 141 142 142 144 150 153 158 163 166 166 163 161 162 165 164 164 165 164 163 164 164 164 165 165 165 167 168 167 168 167 168 169 168 170 171 171 171 170 170 174 178 177 177 176 175 178 181 182 184 186 181 193 191 186 205 223 232 228 233 230 226 229 233 234
203 184 133 264 273 125 152 142 338 39 21 355 32 37 13 315 316 298 137 100 27 63 40 315 56 91 117 141 128 153 156 144 141 141 141 142 145 149 154 158 161 165 166 164 164 166 167 165 167 166 165 166 165 166 167 169 169 169 170 170 170 169 168 169 171 171 171 172 173 171 169 168 171 172 170 177 179 180 187 193 190 194 200 189 184 187 211 241 249 260 252 248 244 230 229 232 234
200 168 119 277 335 59 64 119 183 94 46 316 35 28 95 211 237 282 48 105 66 299 299 354 34 94 142 153 149 174 152 139 139 142 142 143 146 147 151 156 159 164 166 167 167 168 168 167 168 167 169 168 167 169 170 173 174 174 173 172 172 172 173 173 173 174 173 172 172 168 167 167 169 171 174 183 188 192 200 200 199 203 209 197 183 197 221 236 245 259 261 255 257 251 239 237 234
202 90 88 351 329 120 129 139 152 112 136 197 170 192 139 211 226 156 313 162 121 328 27 56 337 125 141 152 153 157 147 139 140 142 141 141 141 141 145 151 158 163 167 171 171 172 171 169 170 170 173 171 171 173 173 177 178 178 177 176 177 175 177 176 176 177 175 175 175 174 173 176 179 184 188 194 195 195 201 199 200 206 211 215 209 209 214 226 236 243 250 246 247 255 247 242 235
198 92 64 353 275 199 181 172 170 139 161 161 170 200 161 163 224 132 275 26 68 22 32 61 310 121 148 165 153 152 147 142 142 141 139 138 139 139 142 149 156 162 169 175 175 174 173 173 173 173 175 174 175 176 175 177 178 180 180 181 180 179 180 179 181 180 180 180 179 180 180 182 183 187 191 195 198 197 204 206 204 206 211 219 220 218 222 224 229 236 242 241 242 253 252 241 232
119 102 93 140 213 233 188 167 166 138 150 169 177 193 161 143 151 172 90 35 46 38 25 13 14 51 176 167 149 151 149 145 145 141 140 142 143 143 146 152 157 164 171 176 178 178 177 177 175 175 177 178 179 178 178 177 178 183 184 183 183 183 184 184 188 187 186 185 183 184 182 183 183 185 188 190 195 197 203 210 209 214 220 226 227 226 234 234 233 235 234 240 244 248 252 242 232
139 106 83 202 204 218 156 136 148 145 153 165 170 175 161 156 158 164 143 82 73 84 45 21 79 95 180 169 148 155 153 148 147 144 144 147 149 150 151 155 160 167 172 176 180 181 181 180 178 178 179 180 182 182 181 179 180 187 186 184 186 185 186 189 192 190 190 188 185 186 183 183 188 190 193 195 198 200 202 207 211 222 230 233 237 236 239 242 244 245 241 240 240 241 250 243 233
156 109 76 255 174 130 126 140 154 159 148 148 161 169 164 170 162 157 146 137 161 145 158 153 142 160 179 175 165 166 151 145 146 146 147 149 152 153 153 158 163 169 174 177 179 183 185 182 181 182 181 183 184 186 186 184 183 188 188 186 188 187 188 191 192 191 190 189 187 187 189 191 198 201 201 202 209 215 212 214 222 232 240 244 247 248 248 249 249 251 250 246 245 246 250 240 231
137 120 156 195 146 132 159 156 153 148 149 151 159 158 163 182 167 147 140 128 237 210 194 180 164 170 176 174 180 172 148 143 146 145 148 149 153 156 158 163 168 172 176 178 179 183 186 183 183 181 183 186 186 190 190 190 188 188 190 189 190 189 188 189 190 191 189 189 190 190 196 201 207 210 207 206 213 226 230 229 236 243 255 261 258 260 261 259 256 255 257 256 257 256 256 247 238
113 152 177 177 158 149 162 158 152 151 153 152 155 160 162 164 152 163 154 151 213 205 195 192 171 171 177 172 173 166 145 149 149 146 150 152 156 160 162 166 169 172 175 178 181 185 187 184 183 180 184 189 189 193 193 193 193 191 191 190 190 188 187 187 186 191 191 190 192 194 201 208 213 215 216 215 215 226 237 240 247 254 264 269 265 269 269 267 265 263 265 264 261 259 259 253 246
105 189 171 178 176 150 152 158 160 159 158 164 169 170 147 140 170 186 179 194 215 178 173 178 171 172 173 168 166 159 150 163 158 151 155 158 161 164 166 168 169 172 175 181 183 188 189 184 184 183 186 191 192 198 197 194 196 193 190 190 188 185 184 186 187 190 193 193 194 197 204 210 216 222 224 223 220 225 236 244 253 261 266 268 269 274 274 275 273 268 270 266 259 257 256 250 247
124 147 172 181 175 150 154 160 165 168 170 176 166 148 153 169 180 171 200 236 205 157 161 166 166 163 163 167 169 161 159 174 172 163 163 165 167 170 173 173 172 174 178 183 185 190 191 186 186 187 190 194 195 200 199 195 197 191 185 186 187 184 185 188 190 191 193 197 199 202 208 214 220 230 231 226 224 227 236 246 256 261 261 262 267 275 279 279 275 270 271 269 262 261 259 247 244
131 159 176 175 165 150 153 156 164 175 176 169 155 161 179 185 163 155 209 233 168 150 155 162 163 158 163 174 173 168 167 183 189 180 175 172 172 176 176 174 174 175 181 185 187 190 191 189 189 190 193 196 196 199 200 197 196 188 182 186 188 189 193 193 192 193 195 198 205 211 214 222 229 237 241 232 225 227 235 244 253 258 258 261 270 282 286 283 280 275 271 271 270 271 268 249 238
177 176 170 164 158 149 149 156 166 175 176 155 161 183 196 189 150 163 216 200 154 153 156 163 167 164 169 178 177 175 175 191 201 197 193 175 169 180 180 174 176 178 182 186 186 187 188 189 191 193 195 197 196 198 201 198 194 188 184 188 191 195 200 199 200 204 205 206 212 216 218 230 237 238 243 235 225 228 234 240 248 260 264 269 285 296 293 287 286 284 278 275 275 276 275 256 234
175 171 163 159 154 149 155 164 169 168 171 167 172 193 205 194 168 187 213 173 155 157 160 167 170 173 176 176 179 179 179 196 206 204 202 186 166 177 179 180 183 182 183 186 186 185 185 189 192 194 197 198 198 199 200 196 192 190 188 191 197 203 207 208 213 217 220 220 218 220 224 227 214 208 220 219 216 220 226 231 237 258 276 282 295 299 294 291 292 293 289 287 285 279 276 261 234
162 154 129 147 148 150 164 167 169 152 173 188 173 176 200 200 217 212 184 162 159 161 165 172 174 178 178 175 180 182 183 197 204 206 206 206 191 176 169 181 188 184 184 189 190 186 185 190 193 195 197 199 201 201 199 195 194 193 193 198 204 211 217 220 225 230 232 230 224 221 221 213 185 166 173 182 191 199 209 217 226 248 272 283 294 295 291 292 294 294 291 294 290 278 273 264 240
153 136 107 147 147 156 175 168 173 165 182 191 154 85 291 214 225 211 171 163 160 163 168 173 179 180 178 179 179 184 190 195 200 207 211 212 210 201 174 175 181 186 190 192 192 189 188 191 193 194 195 198 202 202 198 196 198 198 201 206 210 217 225 228 228 229 226 227 225 216 209 207 202 178 162 163 174 187 200 206 216 241 265 280 295 298 291 286 291 291 289 295 291 278 274 266 248
244 148 116 150 144 181 192 170 174 183 180 175 146 69 242 226 226 199 169 166 160 164 172 173 182 182 180 184 180 189 194 192 194 202 211 214 214 219 207 187 183 185 189 195 197 192 190 192 193 193 193 195 201 203 200 199 203 205 209 213 213 216 225 225 222 219 214 223 219 207 203 207 207 194 174 164 168 182 196 202 221 249 271 282 295 300 294 290 292 288 286 289 285 280 276 264 253
238 177 78 142 159 211 199 170 165 179 182 166 141 79 234 236 231 196 173 171 164 167 176 174 181 182 183 188 184 193 196 195 194 195 206 213 215 222 220 213 215 187 184 200 203 197 190 191 192 192 193 195 198 202 201 200 205 208 211 211 210 215 221 215 211 214 219 224 206 197 200 203 199 192 190 196 206 217 221 234 253 266 277 282 291 297 297 299 297 289 284 279 273 273 266 255 253
25 126 337 201 189 230 198 175 167 169 174 164 145 147 247 251 224 190 176 176 170 170 178 177 182 183 178 183 187 192 198 198 194 191 199 209 215 221 219 219 223 209 204 194 195 198 194 192 194 194 195 194 195 199 200 198 200 203 202 202 208 214 214 212 214 222 227 214 197 195 197 198 197 197 209 225 236 245 251 260 267 272 279 283 291 297 297 301 299 294 286 276 275 277 268 256 256
352 123 210 206 195 232 196 179 175 163 147 173 187 177 245 260 203 183 181 179 173 172 179 177 182 187 177 177 187 186 186 193 193 191 194 201 212 219 219 221 224 218 216 192 186 201 198 194 196 196 195 194 194 195 198 198 198 200 200 201 205 209 210 214 220 229 236 215 196 195 195 197 201 205 216 231 241 255 261 268 273 274 281 287 297 298 295 295 296 298 288 270 279 288 283 269 263
321 128 197 223 186 184 180 171 174 159 152 184 205 201 244 257 179 175 190 182 174 177 181 180 181 186 183 178 181 183 182 186 195 194 192 197 209 219 223 223 227 220 213 209 205 209 197 194 197 196 195 195 195 196 198 199 198 201 204 204 206 210 212 214 220 228 231 209 193 193 195 200 208 209 214 233 256 270 264 270 277 274 284 299 309 307 302 298 295 301 296 278 282 291 289 275 266
273 243 206 238 169 175 204 183 164 166 175 186 189 218 258 256 180 176 195 187 182 188 182 181 183 182 184 182 182 182 181 188 194 191 191 196 204 217 223 223 227 225 218 217 210 199 193 194 195 192 194 197 197 199 199 197 198 200 202 203 209 214 210 208 212 211 202 191 187 192 200 205 210 208 214 244 271 277 266 271 274 270 287 312 324 322 327 325 312 303 306 296 287 292 293 281 274
263 264 226 232 193 192 218 192 157 162 173 191 182 204 230 206 197 185 192 192 188 192 180 174 179 179 179 182 187 180 184 197 191 181 179 190 203 213 220 222 225 228 227 218 198 184 184 187 190 189 192 197 197 196 195 194 195 196 198 202 210 209 199 195 195 191 187 185 189 199 207 211 214 213 224 250 268 274 269 272 266 267 291 313 323 330 329 337 349 335 321 311 298 304 313 310 311
262 280 305 282 295 218 219 185 156 156 163 208 182 182 192 190 204 193 183 191 195 190 181 174 169 174 180 180 186 181 181 136 80 87 110 181 208 210 214 217 219 223 225 218 199 185 181 177 183 188 187 187 187 187 189 193 193 191 191 195 199 193 186 184 185 188 193 193 197 205 212 220 228 229 236 244 249 260 266 265 258 268 296 304 318 332 317 317 348 349 336 333 328 329 330 330 331
248 267 334 319 328 285 240 158 156 159 157 187 154 162 200 196 201 192 165 180 205 195 181 183 177 177 182 179 179 155 120 88 87 112 161 196 209 205 203 208 213 217 219 217 207 191 184 178 179 184 184 184 185 188 192 195 196 196 194 192 190 187 185 184 186 193 200 203 208 212 219 240 249 244 240 235 234 249 258 263 267 277 292 298 310 324 316 318 338 334 325 323 324 319 317 326 324
243 317 8 325 307 317 342 125 158 165 147 150 154 172 208 207 205 202 172 182 209 201 187 188 179 175 185 187 170 119 103 110 131 155 176 198 209 201 194 204 211 214 214 213 206 189 186 186 183 182 181 183 188 196 201 203 204 205 204 199 192 192 194 195 196 199 203 210 218 226 242 257 256 247 240 226 226 252 259 265 273 285 291 294 288 284 306 328 330 317 305 302 303 311 316 326 320
315 6 20 297 293 324 8 101 161 172 151 152 154 158 255 263 262 254 214 200 211 202 200 196 181 181 187 179 141 123 127 138 155 171 184 201 210 205 200 206 209 210 209 207 198 186 184 188 192 189 178 177 189 202 207 208 209 208 209 208 200 198 199 202 204 203 211 223 229 239 251 255 248 233 228 221 238 269 268 265 270 284 290 283 245 246 277 305 313 305 294 290 292 309 327 335 327
313 315 251 258 274 250 141 108 135 110 38 127 118 63 324 260 226 252 262 274 204 188 186 202 209 194 158 118 111 130 146 153 162 181 197 199 203 208 211 212 210 209 210 208 199 188 185 189 194 189 168 172 197 210 212 209 206 201 198 200 198 193 191 195 198 197 208 221 229 240 237 230 222 211 215 230 254 270 270 266 270 277 279 265 229 245 288 303 306 296 285 284 283 297 319 325 328
325 310 253 227 223 297 348 73 94 67 14 175 123 85 290 251 208 236 263 253 216 193 183 196 204 179 118 107 120 138 148 162 172 183 197 195 193 206 214 214 212 213 214 212 206 200 199 197 191 174 154 190 215 222 221 215 209 199 179 179 183 180 179 183 187 189 199 212 222 232 223 203 201 203 216 240 255 267 268 262 266 272 260 228 212 265 299 304 308 297 280 278 277 280 299 312 331
330 281 258 198 103 35 357 17 81 116 192 211 170 123 255 247 222 235 235 224 226 209 208 206 181 157 130 125 138 148 156 171 182 190 200 193 185 195 205 211 212 213 216 215 210 206 206 201 191 183 200 218 226 231 232 227 224 216 192 188 187 179 176 173 176 186 196 206 213 220 222 214 209 207 219 240 252 261 259 251 251 238 193 178 217 318 317 316 312 288 263 260 266 273 283 298 359
246 278 341 37 19 7 354 2 25 173 159 226 190 126 103 223 246 225 169 195 229 219 228 225 160 144 132 136 149 160 169 174 180 191 203 195 184 186 189 203 212 213 215 215 210 209 212 212 214 235 243 243 242 247 252 245 237 227 211 206 199 186 178 168 174 190 197 203 205 211 218 216 213 214 226 243 251 254 255 247 210 172 143 105 20 353 345 339 295 219 221 237 248 285 299 298 43
241 267 336 22 322 341 14 10 324 295 42 328 246 119 92 321 295 239 133 181 227 220 223 213 174 148 136 145 160 170 177 177 180 184 193 193 185 187 184 193 211 216 215 213 209 210 217 221 222 235 244 252 254 259 270 261 239 228 221 211 194 185 187 181 180 190 200 208 212 213 215 211 213 219 228 239 245 253 255 219 155 133 96 73 58 38 34 25 197 195 213 243 236 274 339 342 8
241 227 14 347 354 18 21 2 307 4 34 283 255 129 98 339 292 188 108 244 234 216 221 204 180 151 143 157 163 170 179 181 184 179 179 182 182 188 182 180 200 209 204 195 190 191 196 202 193 182 195 211 225 240 259 257 232 219 215 202 183 179 185 187 186 187 198 213 217 216 215 213 214 210 211 227 241 247 213 163 134 115 89 89 71 34 64 65 85 147 141 142 183 259 336 336 341
228 75 36 356 359 14 16 8 55 47 327 266 229 134 115 105 279 224 166 237 200 175 194 178 165 150 149 167 165 169 178 175 179 167 161 166 170 181 173 167 182 187 184 173 165 173 174 168 156 149 160 175 199 224 233 231 222 206 197 186 180 181 182 184 189 190 198 211 216 218 218 213 212 204 203 220 231 213 172 152 137 127 106 82 314 67 94 74 67 94 102 88 74 43 14 7 5
108 69 51 22 346 1 11 359 42 93 268 272 128 101 94 106 256 238 231 246 187 162 171 166 165 162 159 169 167 171 171 160 159 152 150 151 151 163 161 158 167 166 165 161 159 167 161 156 160 153 145 146 160 187 197 208 212 196 186 181 178 181 183 183 187 192 198 206 212 221 221 212 211 204 201 204 197 181 164 153 145 137 78 318 234 129 101 72 67 92 95 74 51 29 17 8 356
59 62 60 62 349 4 6 334 16 163 259 260 117 93 79 136 242 229 234 249 209 168 165 164 162 162 163 170 168 171 166 152 151 145 151 156 145 152 157 155 163 166 163 161 159 156 149 156 169 155 134 129 127 125 141 165 179 170 174 175 170 173 182 186 189 195 198 203 211 220 218 213 211 202 196 195 190 182 170 161 149 134 102 90 121 122 102 75 66 76 72 53 17 355 354 343 339
62 105 92 101 93 38 322 297 335 310 298 250 99 83 84 285 291 239 236 244 200 155 153 158 155 155 162 166 159 154 158 155 148 142 155 165 147 150 158 154 155 162 163 162 155 147 147 152 156 143 130 131 130 124 126 129 132 148 162 167 164 167 176 184 188 190 191 199 210 217 217 212 204 198 193 186 184 179 172 172 162 143 119 104 109 107 106 121 34 350 355 353 336 343 341 324 330
211 163 127 125 153 145 225 240 235 272 304 358 12 61 139 202 259 239 236 260 135 130 134 135 131 141 146 145 147 145 152 156 153 154 159 163 151 154 159 147 145 154 157 157 147 140 144 143 140 138 131 133 135 126 124 125 123 133 145 155 160 161 167 176 179 180 186 195 197 198 199 193 184 188 189 181 182 180 174 177 174 160 136 105 114 135 131 164 271 328 345 345 341 350 344 330 329
266 140 103 130 197 157 196 206 180 183 65 0 355 61 184 204 4 14 63 84 104 113 119 121 126 138 135 140 154 150 156 159 158 163 159 156 160 167 165 146 142 148 151 152 147 142 143 137 128 130 129 130 129 124 126 128 126 128 133 142 149 151 155 164 166 164 166 168 171 180 193 205 200 189 187 186 192 194 187 189 192 194 199 154 131 136 111 106 355 11 11 7 10 0 350 349 343
291 73 151 239 196 142 154 262 316 71 83 6 6 114 178 11 26 3 50 92 102 114 125 132 138 143 139 148 161 156 159 159 162 171 158 154 170 179 165 145 142 146 149 152 152 148 149 145 135 128 126 124 123 125 127 127 127 128 131 137 143 146 148 149 149 146 147 161 191 212 232 234 210 195 200 202 203 210 210 207 202 192 188 164 137 125 98 95 94 61 40 21 15 1 345 354 354
119 197 222 253 335 100 113 173 349 45 94 253 205 148 155 141 124 250 215 143 136 137 139 140 142 146 148 154 161 161 159 154 156 161 151 153 170 175 158 146 147 149 150 152 151 149 151 150 142 134 132 130 126 127 126 125 125 126 131 137 138 142 143 143 144 139 129 214 194 169 162 170 166 162 166 162 159 167 178 180 168 145 136 134 127 124 116 108 99 64 48 38 31 22 6 0 355
129 208 223 97 49 338 12 95 27 65 109 144 236 146 142 180 181 192 201 186 165 158 152 151 155 158 157 157 160 159 153 151 151 149 153 154 159 162 151 144 148 149 148 149 148 149 150 152 151 143 140 138 134 133 127 123 125 126 131 134 134 136 138 137 134 113 88 111 125 131 131 135 140 138 134 132 130 132 140 145 142 132 125 124 119 120 116 96 82 60 49 46 36 25 18 14 9
54 307 295 81 148 183 221 195 157 134 124 150 194 353 280 231 195 185 196 187 167 165 166 166 166 164 163 161 162 162 158 159 158 153 159 158 156 158 151 146 149 147 147 148 148 148 151 155 158 152 148 146 141 140 129 121 128 135 137 136 137 136 130 125 107 82 123 128 124 123 122 125 133 135 135 135 129 123 125 127 127 123 121 124 120 111 102 83 71 52 39 32 17 3 0 10 19
78 313 286 289 269 184 93 300 164 131 128 146 140 145 259 249 196 187 192 181 172 172 168 169 170 164 163 163 163 166 164 161 160 159 161 157 151 147 144 147 149 145 144 146 146 146 152 158 159 158 153 147 146 147 139 135 141 146 145 142 140 131 124 134 118 114 131 130 122 119 120 123 132 139 143 142 132 121 119 120 120 117 117 122 120 109 100 76 58 46 34 26 14 356 339 350 12
149 175 216 219 233 122 80 317 291 114 125 154 138 162 251 250 195 197 189 171 179 175 160 163 169 162 163 166 165 165 164 161 159 163 162 150 143 137 135 141 144 143 143 144 146 151 160 165 168 170 160 150 153 158 153 152 153 154 153 148 138 127 128 145 133 132 131 127 121 123 126 129 133 137 139 135 128 120 118 121 117 112 113 113 109 106 87 56 55 54 40 30 22 8 344 332 344